Location: U-46 Planetarium
(42.0300°N, 88.2740°W)
Time: 20:21:53
(UTC-05:00)

EO 1 Del DPAF - Pass Details

Date: 16 December 2017
Orbit: 521 x 527 km, 98.1° (Epoch: 21 July)

Event Time Altitude Azimuth Distance (km) Brightness Sun altitude
Rises 06:08:09 0° 202° (SSW) 2,648 6.8 -12.0°
Reaches altitude 10° 06:10:47 10° 222° (SW) 1,763 5.7 -11.5°
Enters shadow 06:14:22 16° 285° (WNW) 1,404 4.7 -10.9°
Exits shadow 06:37:10 -42° 2° (N) 9,352 9.4 -7.0°
Maximum altitude 17:45:51 38° 99° (E) 809 3.7 -14.8°
